STARLINK-33837, 63501

Orbit data source: Space-Track

STARLINK-33837, 63501 is a payload satellite owned by SpaceX/Seattle (US) in LEO that was launched on Mon, 07 Apr 2025 UTC via an FALCON 9 launch vehicle from the Air Force Western Test Range (AFWTR). Payload-class satellites include a variety of spacecraft equipped with specific instruments for various scientific and technological missions. These include communications satellites like Starlink; space stations such as the ISS; scientific satellites like the Hubble; Earth observation satellites from companies like Planet Labs, Umbra, and HawkEye 360; GPS; miniature CubeSats for education and research; and military/defense satellites.

Loading next visibility...
Identifier
63501, 2025-071J
Orbit
LEO
Last TLE update
1 day ago
Origin
Manufacturer
SpaceX/Seattle
Mission
Operational Commercial Communications
Bus & Motor
STARLINK V2MO, Unknown motor
Mass
575 kg wet, ~530 kg dry
Launch date (UTC)
2025-04-07 (1 month ago)
Launch vehicle
FALCON 9
Launch site
Air Force Western Test Range (AFWTR)
Object type
Payload
Rocket body
Debris
Shape & HBR
Box + 1 Pan, 29 m
Radar Cross Section
41.120 m², Large (>1 m²)

Expand to show TLE details & history

TLE from 1 day ago
0 STARLINK-33837
1 63501U 25071J   25128.32383988 -.00250717  00000-0 -49095-2 0  9995
2 63501  53.1605 122.8162 0002194 119.6398 240.4829 15.47732268  5898
Epoch: 2025-05-08T07:46Z
Definitive object data (Epoch: 2025-05-08T07:46:19.765Z)
Latitude
-0.00004°
Longitude
139.83784°
Altitude
425.004 km
Speed
7.657 km/s
True Right ascension
08h 11m 15s
True Declination
0° 00' 00"
Sunlit
Object was in daylight at TLE epoch
Visualization TLE readout
Latitude
-6.16496°
Longitude
-40.63534°
Altitude
426.252 km
Speed
7.657 km/s
Apparent Right ascension
23h 14m 12s
Apparent Declination
-48° 07' 51"
Sunlit
Object is in daylight
Visualization observer readout
Local Sidereal Time
17:32:06
Azimuth
132.258° SE
Elevation
-25.969°
Doppler factor
1
Orbital elements
Apogee altitude
425.112 km
Perigee altitude
422.128 km
Semi-major axis
6,801.757 km
Eccentricity
0.0002194
Inclination
53.1605°
RAAN
122.8162°
Arg. of periapsis
119.6398°
True anomaly
240.46102°
Mean anomaly
240.4829°
Eccentric anomaly
240.47196°
Mean motion
3.86911 °/min
BSTAR
-0.0049095
Orbital period
93.04 mins
Loading maneuver chart data...
Loading SW <> Apogee altitude chart data...
Loading historical data...
Loading historical data...
Loading historical data...
Loading historical data...
Loading historical data...
Loading historical data...
Loading historical data...

STARLINK-33837 Visibility forecast

Observer location: undefined°, undefined°

Span
Click to sort rows by Start time (UTC) header in descending order
Start Az.
Max El. time (UTC)
Max El. Az.
Max El.
End time (UTC)
End Az.
6 mins2025-05-10 01:47:47.733Z222.058° SW2025-05-10 01:50:47.733Z179.004° S42.535°2025-05-10 01:53:47.733Z54.824° ENE
5 mins2025-05-10 08:19:47.733Z326.63° NNW2025-05-10 08:21:47.733Z43.89° NE38.518°2025-05-10 08:24:47.733Z114.275° SE
|